When you browse on this site, cookies collect data to enhance your experience and personalize the content and advertising you see.
Visit our Privacy Policy to learn more. By continuing to use the site, you agree to this use of cookies and data.
  • în România
  • Lista ţărilor
  • Pe 7 zile
  • Temperatura apei
  • Meteo pe hartă
  • Widget-uri
  • user-avatar
    Intrare

    Meteo pe oră la Truto

    Astăzi, 27 Ianuarie, Luni

    Timp Temperatura Precipitaţii Vânt Presiune Umiditate
    00:00 +6°C° 0.1 mm 10 m/s 750 mmHg 86%
    01:00 +6°C° 0.2 mm 10 m/s 750 mmHg 85%
    02:00 +6°C° 0.2 mm 9 m/s 750 mmHg 85%
    03:00 +6°C° 0.2 mm 9 m/s 749 mmHg 84%
    04:00 +6°C° 0.1 mm 9 m/s 749 mmHg 82%
    05:00 +5°C° 0.1 mm 8 m/s 749 mmHg 80%
    06:00 +5°C° 0.1 mm 8 m/s 748 mmHg 79%
    07:00 +5°C° 0.1 mm 8 m/s 748 mmHg 79%
    08:00 +5°C° 0.1 mm 7 m/s 748 mmHg 80%
    09:00 +5°C° 0.1 mm 7 m/s 748 mmHg 80%
    10:00 +5°C° 0.2 mm 7 m/s 747 mmHg 79%
    11:00 +6°C° 0.2 mm 7 m/s 747 mmHg 77%
    12:00 +6°C° 0.2 mm 8 m/s 747 mmHg 76%
    13:00 +6°C° 0.1 mm 8 m/s 746 mmHg 76%
    14:00 +6°C° 0.1 mm 8 m/s 745 mmHg 76%
    15:00 +6°C° 0.1 mm 8 m/s 744 mmHg 76%
    16:00 +5°C° 0.7 mm 9 m/s 744 mmHg 80%
    17:00 +4°C° 0.7 mm 11 m/s 743 mmHg 85%
    18:00 +3°C° 0.7 mm 12 m/s 742 mmHg 89%
    19:00 +3°C° 0.6 mm 12 m/s 742 mmHg 85%
    20:00 +3°C° 0.6 mm 12 m/s 742 mmHg 81%
    21:00 +3°C° 0.6 mm 12 m/s 742 mmHg 76%
    22:00 +2°C° 0.5 mm 12 m/s 742 mmHg 75%
    23:00 +2°C° 0.5 mm 12 m/s 743 mmHg 74%

    Mâine, 28 Ianuarie, Marţi

    Timp Temperatura Precipitaţii Vânt Presiune Umiditate
    00:00 +2°C° 0.5 mm 12 m/s 743 mmHg 73%
    01:00 +2°C° 0.3 mm 12 m/s 744 mmHg 72%
    02:00 0°C° 0.3 mm 12 m/s 745 mmHg 71%
    03:00 0°C° 0.3 mm 12 m/s 745 mmHg 69%
    04:00 +2°C° 0.2 mm 12 m/s 746 mmHg 69%
    05:00 +2°C° 0.2 mm 12 m/s 746 mmHg 69%
    06:00 +2°C° 0.2 mm 12 m/s 746 mmHg 70%
    07:00 +2°C° 0.3 mm 12 m/s 747 mmHg 71%
    08:00 +1°C° 0.3 mm 13 m/s 747 mmHg 73%
    09:00 +3°C° 0.3 mm 13 m/s 748 mmHg 75%
    10:00 +3°C° 0.4 mm 13 m/s 748 mmHg 73%
    11:00 +3°C° 0.4 mm 14 m/s 748 mmHg 71%
    12:00 +4°C° 0.4 mm 14 m/s 749 mmHg 69%
    13:00 +3°C° 0.3 mm 14 m/s 749 mmHg 69%
    14:00 +3°C° 0.3 mm 14 m/s 749 mmHg 69%
    15:00 +3°C° 0.3 mm 14 m/s 750 mmHg 70%
    16:00 +3°C° 0.2 mm 14 m/s 750 mmHg 70%
    17:00 +3°C° 0.2 mm 13 m/s 751 mmHg 71%
    18:00 +2°C° 0.2 mm 12 m/s 751 mmHg 72%
    19:00 +2°C° 0.2 mm 12 m/s 752 mmHg 73%
    20:00 +2°C° 0.2 mm 11 m/s 752 mmHg 74%
    21:00 +2°C° 0.2 mm 10 m/s 753 mmHg 75%
    22:00 +2°C° 0.2 mm 10 m/s 753 mmHg 75%
    23:00 +2°C° 0.2 mm 9 m/s 753 mmHg 75%

    Poimâine, 29 Ianuarie, Miercuri

    Timp Temperatura Precipitaţii Vânt Presiune Umiditate
    00:00 +2°C° 0.2 mm 9 m/s 754 mmHg 75%
    01:00 +2°C° 0.1 mm 9 m/s 754 mmHg 76%
    02:00 +3°C° 0.1 mm 9 m/s 755 mmHg 77%
    03:00 +3°C° 0.1 mm 9 m/s 755 mmHg 77%
    04:00 +4°C° 0.1 mm 8 m/s 756 mmHg 77%
    05:00 +4°C° 0.1 mm 8 m/s 756 mmHg 76%
    06:00 +4°C° 0.1 mm 7 m/s 756 mmHg 75%
    07:00 +4°C° 0 mm 7 m/s 757 mmHg 76%
    08:00 +4°C° 0 mm 6 m/s 757 mmHg 77%
    09:00 +5°C° 0 mm 5 m/s 758 mmHg 78%
    10:00 +6°C° 0 mm 5 m/s 758 mmHg 75%
    11:00 +7°C° 0 mm 5 m/s 759 mmHg 73%
    12:00 +8°C° 0 mm 5 m/s 759 mmHg 70%
    13:00 +8°C° 0 mm 5 m/s 759 mmHg 71%
    14:00 +8°C° 0 mm 5 m/s 759 mmHg 73%
    15:00 +8°C° 0 mm 5 m/s 758 mmHg 74%
    16:00 +7°C° 0 mm 5 m/s 758 mmHg 78%
    17:00 +6°C° 0 mm 5 m/s 758 mmHg 82%
    18:00 +5°C° 0 mm 5 m/s 758 mmHg 86%
    19:00 +5°C° 0 mm 5 m/s 758 mmHg 86%
    20:00 +4°C° 0 mm 6 m/s 757 mmHg 87%
    21:00 +4°C° 0 mm 6 m/s 757 mmHg 87%
    22:00 +4°C° 0 mm 6 m/s 757 mmHg 87%
    23:00 +5°C° 0 mm 7 m/s 756 mmHg 87%

    30 Ianuarie, Joi

    Timp Temperatura Precipitaţii Vânt Presiune Umiditate
    00:00 +5°C° 0 mm 7 m/s 756 mmHg 87%
    01:00 +5°C° 0 mm 8 m/s 754 mmHg 87%
    02:00 +6°C° 0 mm 9 m/s 753 mmHg 87%
    03:00 +6°C° 0 mm 10 m/s 752 mmHg 86%
    04:00 +6°C° 0.5 mm 10 m/s 750 mmHg 89%
    05:00 +7°C° 0.5 mm 11 m/s 749 mmHg 92%
    06:00 +7°C° 0.5 mm 11 m/s 747 mmHg 94%
    07:00 +8°C° 1 mm 10 m/s 747 mmHg 95%
    08:00 +10°C° 1 mm 9 m/s 746 mmHg 96%
    09:00 +10°C° 1 mm 9 m/s 745 mmHg 97%
    10:00 +10°C° 0 mm 9 m/s 745 mmHg 95%
    11:00 +11°C° 0 mm 10 m/s 745 mmHg 94%
    12:00 +11°C° 0 mm 11 m/s 745 mmHg 93%
    13:00 +11°C° 0 mm 11 m/s 746 mmHg 93%
    14:00 +9°C° 0 mm 11 m/s 747 mmHg 93%
    15:00 +9°C° 0 mm 11 m/s 747 mmHg 93%
    16:00 +9°C° 0 mm 10 m/s 748 mmHg 91%
    17:00 +8°C° 0 mm 10 m/s 749 mmHg 90%
    18:00 +8°C° 0 mm 9 m/s 750 mmHg 89%
    19:00 +8°C° 0 mm 9 m/s 750 mmHg 89%
    20:00 +8°C° 0 mm 9 m/s 751 mmHg 89%
    21:00 +8°C° 0 mm 9 m/s 752 mmHg 89%
    22:00 +8°C° 0 mm 9 m/s 752 mmHg 89%
    23:00 +8°C° 0 mm 9 m/s 753 mmHg 88%

    31 Ianuarie, Vineri

    Timp Temperatura Precipitaţii Vânt Presiune Umiditate
    00:00 +8°C° 0 mm 9 m/s 753 mmHg 88%
    01:00 +9°C° 0 mm 8 m/s 753 mmHg 88%
    02:00 +9°C° 0 mm 8 m/s 753 mmHg 89%
    03:00 +9°C° 0 mm 7 m/s 754 mmHg 89%
    04:00 +9°C° 0 mm 7 m/s 753 mmHg 91%
    05:00 +10°C° 0 mm 8 m/s 753 mmHg 92%
    06:00 +10°C° 0 mm 9 m/s 753 mmHg 93%
    07:00 +10°C° 0 mm 9 m/s 753 mmHg 93%
    08:00 +9°C° 0 mm 10 m/s 753 mmHg 93%
    09:00 +9°C° 0 mm 10 m/s 753 mmHg 93%
    10:00 +9°C° 0.9 mm 10 m/s 753 mmHg 94%
    11:00 +11°C° 0.9 mm 10 m/s 753 mmHg 95%
    12:00 +11°C° 0.9 mm 10 m/s 752 mmHg 96%
    13:00 +11°C° 0.2 mm 9 m/s 752 mmHg 95%
    14:00 +11°C° 0.2 mm 9 m/s 752 mmHg 95%
    15:00 +11°C° 0.2 mm 9 m/s 752 mmHg 95%
    16:00 +11°C° 0 mm 8 m/s 752 mmHg 94%
    17:00 +10°C° 0 mm 8 m/s 752 mmHg 93%
    18:00 +10°C° 0 mm 8 m/s 753 mmHg 92%
    19:00 +10°C° 0 mm 8 m/s 753 mmHg 93%
    20:00 +10°C° 0 mm 8 m/s 753 mmHg 94%
    21:00 +8°C° 0 mm 9 m/s 753 mmHg 94%
    22:00 +8°C° 0 mm 9 m/s 753 mmHg 92%
    23:00 +8°C° 0 mm 9 m/s 753 mmHg 89%

    1 Februarie, Sâmbătă

    Timp Temperatura Precipitaţii Vânt Presiune Umiditate
    00:00 +8°C° 0 mm 9 m/s 754 mmHg 86%
    01:00 +8°C° 0 mm 9 m/s 754 mmHg 87%
    02:00 +8°C° 0 mm 9 m/s 754 mmHg 87%
    03:00 +8°C° 0 mm 10 m/s 754 mmHg 87%
    04:00 +7°C° 0 mm 10 m/s 754 mmHg 85%
    05:00 +7°C° 0 mm 10 m/s 754 mmHg 83%
    06:00 +7°C° 0 mm 9 m/s 754 mmHg 81%
    07:00 +7°C° 0 mm 10 m/s 755 mmHg 81%
    08:00 +7°C° 0 mm 10 m/s 756 mmHg 80%
    09:00 +7°C° 0 mm 10 m/s 757 mmHg 79%
    10:00 +7°C° 0 mm 10 m/s 757 mmHg 76%
    11:00 +7°C° 0 mm 10 m/s 758 mmHg 73%
    12:00 +8°C° 0 mm 10 m/s 759 mmHg 70%
    13:00 +8°C° 0 mm 9 m/s 759 mmHg 70%
    14:00 +9°C° 0 mm 8 m/s 760 mmHg 71%
    15:00 +9°C° 0 mm 7 m/s 760 mmHg 71%
    16:00 +8°C° 0 mm 7 m/s 760 mmHg 75%
    17:00 +7°C° 0 mm 6 m/s 761 mmHg 80%
    18:00 +6°C° 0 mm 5 m/s 761 mmHg 84%
    19:00 +6°C° 0 mm 5 m/s 761 mmHg 85%
    20:00 +5°C° 0 mm 6 m/s 761 mmHg 86%
    21:00 +7°C° 0 mm 6 m/s 761 mmHg 87%
    22:00 +6°C° 0 mm 7 m/s 761 mmHg 89%
    23:00 +7°C° 0 mm 8 m/s 761 mmHg 90%
    Arată mai mult